This is the latest recevied weather packets stored in our database for station/object WB5CFT. If no packets are shown the sender has not sent any weather packets the latest 10 day(s).
| Time | Temp. | Humidity | Pressure | Rain* | Wind** | Luminosity | Snow |
|---|---|---|---|---|---|---|---|
| 1777430679 | 27.78° C | 12% | 1014.6 hPa | 0 mm | - | 0 W/m² | - |
| 1777430374 | 27.78° C | 12% | 1014.4 hPa | 0 mm | - | 0 W/m² | - |
| 1777430070 | 28.33° C | 12% | 1014.4 hPa | 0 mm | - | 0 W/m² | - |
| 1777429766 | 28.33° C | 12% | 1014.5 hPa | 0 mm | - | 0 W/m² | - |
| 1777429462 | 28.89° C | 12% | 1014.3 hPa | 0 mm | - | 0 W/m² | - |
| 1777429158 | 28.89° C | 12% | 1014.1 hPa | 0 mm | - | 0 W/m² | - |
| 1777428855 | 28.89° C | 12% | 1014 hPa | 0 mm | - | 0 W/m² | - |
| 1777428551 | 28.89° C | 12% | 1014.3 hPa | 0 mm | - | 0 W/m² | - |
| 1777428246 | 29.44° C | 11% | 1013.9 hPa | 0 mm | - | 0 W/m² | - |
| 1777427942 | 29.44° C | 12% | 1013.7 hPa | 0 mm | - | 0 W/m² | - |
| 1777427638 | 29.44° C | 12% | 1013.5 hPa | 0 mm | - | 0 W/m² | - |
| 1777427335 | 30° C | 11% | 1013.5 hPa | 0 mm | - | 1 W/m² | - |
| 1777427032 | 30° C | 12% | 1013.5 hPa | 0 mm | - | 2 W/m² | - |
| 1777426729 | 30.56° C | 12% | 1013.3 hPa | 0 mm | - | 3 W/m² | - |
| 1777426426 | 30.56° C | 12% | 1013.5 hPa | 0 mm | - | 5 W/m² | - |
| 1777426122 | 30.56° C | 11% | 1013.4 hPa | 0 mm | - | 11 W/m² | - |
| 1777425816 | 31.11° C | 12% | 1013.2 hPa | 0 mm | - | 19 W/m² | - |
| 1777425512 | 31.11° C | 11% | 1013.3 hPa | 0 mm | - | 27 W/m² | - |
| 1777425212 | 31.11° C | 11% | 1013.3 hPa | 0 mm | - | 40 W/m² | - |
| 1777424910 | 31.11° C | 11% | 1013.2 hPa | 0 mm | - | 42 W/m² | - |
| 1777424605 | 31.67° C | 12% | 1013 hPa | 0 mm | - | 48 W/m² | - |
| 1777424300 | 31.67° C | 11% | 1012.9 hPa | 0 mm | - | 64 W/m² | - |
| 1777423997 | 31.67° C | 11% | 1013 hPa | 0 mm | - | 71 W/m² | - |
| 1777423694 | 31.67° C | 11% | 1013 hPa | 0 mm | - | 81 W/m² | - |
| 1777423389 | 31.67° C | 11% | 1012.9 hPa | 0 mm | - | 100 W/m² | - |
* Rain latest hour (hover to see other rain measurements)
** Current wind speed in m/s (hover to see current wind gust speed)